When you browse on this site, cookies collect data to enhance your experience and personalize the content and advertising you see.
Visit our Privacy Policy to learn more. By continuing to use the site, you agree to this use of cookies and data.
  • In Norway
  • List of Countries
  • For 7 days
  • Water Temperature
  • Satellite Maps
  • Weather Map
  • Weather Widgets
  • user-avatar
    Login

    Hourly Weather As-Salt

    Today, 24 March, Sunday

    Time Temperature Precipitation Wind Pressure Humidity
    00:00 +14°C° 0 mm 0 mps 706 mmHg 70%
    01:00 +14°C° 0 mm 0 mps 705 mmHg 70%
    02:00 +14°C° 0 mm 0 mps 705 mmHg 69%
    03:00 +15°C° 0.2 mm 1 mps 704 mmHg 71%
    04:00 +14°C° 0.2 mm 1 mps 704 mmHg 73%
    05:00 +14°C° 0.2 mm 2 mps 704 mmHg 74%
    06:00 +14°C° 0.3 mm 2 mps 704 mmHg 72%
    07:00 +14°C° 0.3 mm 2 mps 704 mmHg 69%
    08:00 +15°C° 0.3 mm 2 mps 704 mmHg 66%
    09:00 +14°C° 0.2 mm 3 mps 704 mmHg 58%
    10:00 +16°C° 0.2 mm 3 mps 704 mmHg 50%
    11:00 +17°C° 0.2 mm 4 mps 704 mmHg 43%
    12:00 +17°C° 0 mm 4 mps 704 mmHg 43%
    13:00 +16°C° 0 mm 5 mps 704 mmHg 43%
    14:00 +16°C° 0 mm 5 mps 704 mmHg 43%
    15:00 +15°C° 0 mm 6 mps 704 mmHg 43%
    16:00 +15°C° 0 mm 6 mps 703 mmHg 42%
    17:00 +15°C° 0 mm 6 mps 703 mmHg 42%
    18:00 +14°C° 0 mm 5 mps 703 mmHg 47%
    19:00 +13°C° 0 mm 4 mps 703 mmHg 51%
    20:00 +12°C° 0 mm 3 mps 703 mmHg 55%
    21:00 +11°C° 0 mm 3 mps 703 mmHg 58%
    22:00 +11°C° 0 mm 3 mps 703 mmHg 60%
    23:00 +12°C° 0 mm 2 mps 703 mmHg 62%

    Tomorrow, 25 March, Monday

    Time Temperature Precipitation Wind Pressure Humidity
    00:00 +10°C° 0 mm 3 mps 703 mmHg 65%
    01:00 +10°C° 0 mm 3 mps 703 mmHg 68%
    02:00 +10°C° 0 mm 3 mps 703 mmHg 71%
    03:00 +10°C° 0.1 mm 4 mps 702 mmHg 72%
    04:00 +10°C° 0.1 mm 4 mps 702 mmHg 72%
    05:00 +9°C° 0.1 mm 5 mps 702 mmHg 73%
    06:00 +9°C° 0 mm 5 mps 703 mmHg 70%
    07:00 +9°C° 0 mm 6 mps 703 mmHg 67%
    08:00 +9°C° 0 mm 6 mps 703 mmHg 65%
    09:00 +10°C° 0 mm 6 mps 704 mmHg 61%
    10:00 +11°C° 0 mm 6 mps 704 mmHg 58%
    11:00 +11°C° 0 mm 6 mps 704 mmHg 54%
    12:00 +11°C° 0.3 mm 6 mps 704 mmHg 58%
    13:00 +11°C° 0.3 mm 7 mps 704 mmHg 61%
    14:00 +10°C° 0.3 mm 7 mps 704 mmHg 64%
    15:00 +10°C° 0.1 mm 6 mps 705 mmHg 65%
    16:00 +10°C° 0.1 mm 6 mps 705 mmHg 65%
    17:00 +10°C° 0.1 mm 6 mps 705 mmHg 65%
    18:00 +9°C° 0 mm 5 mps 706 mmHg 69%
    19:00 +10°C° 0 mm 4 mps 707 mmHg 73%
    20:00 +8°C° 0 mm 4 mps 707 mmHg 77%
    21:00 +9°C° 0 mm 3 mps 708 mmHg 79%
    22:00 +9°C° 0 mm 3 mps 708 mmHg 80%
    23:00 +9°C° 0 mm 3 mps 708 mmHg 81%

    Day after tomorrow, 26 March, Tuesday

    Time Temperature Precipitation Wind Pressure Humidity
    00:00 +8°C° 0 mm 3 mps 708 mmHg 80%
    01:00 +8°C° 0 mm 3 mps 709 mmHg 79%
    02:00 +8°C° 0 mm 3 mps 709 mmHg 78%
    03:00 +8°C° 0 mm 2 mps 709 mmHg 79%
    04:00 +8°C° 0 mm 2 mps 709 mmHg 79%
    05:00 +7°C° 0 mm 2 mps 709 mmHg 79%
    06:00 +8°C° 0 mm 2 mps 710 mmHg 72%
    07:00 +9°C° 0 mm 3 mps 710 mmHg 64%
    08:00 +10°C° 0 mm 3 mps 711 mmHg 57%
    09:00 +11°C° 0 mm 3 mps 711 mmHg 53%
    10:00 +12°C° 0 mm 3 mps 711 mmHg 49%
    11:00 +13°C° 0 mm 3 mps 711 mmHg 45%
    12:00 +14°C° 0 mm 4 mps 711 mmHg 44%
    13:00 +14°C° 0 mm 4 mps 711 mmHg 44%
    14:00 +15°C° 0 mm 5 mps 711 mmHg 44%
    15:00 +14°C° 0 mm 4 mps 711 mmHg 47%
    16:00 +14°C° 0 mm 4 mps 711 mmHg 50%
    17:00 +13°C° 0 mm 3 mps 711 mmHg 53%
    18:00 +12°C° 0 mm 3 mps 712 mmHg 57%
    19:00 +13°C° 0 mm 2 mps 712 mmHg 61%
    20:00 +12°C° 0 mm 1 mps 713 mmHg 65%
    21:00 +12°C° 0 mm 1 mps 713 mmHg 66%
    22:00 +11°C° 0 mm 1 mps 713 mmHg 68%
    23:00 +11°C° 0 mm 1 mps 713 mmHg 69%

    27 March, Wednesday

    Time Temperature Precipitation Wind Pressure Humidity
    00:00 +11°C° 0 mm 1 mps 712 mmHg 68%
    01:00 +10°C° 0 mm 1 mps 712 mmHg 68%
    02:00 +10°C° 0 mm 1 mps 712 mmHg 67%
    03:00 +10°C° 0 mm 1 mps 712 mmHg 67%
    04:00 +9°C° 0 mm 2 mps 713 mmHg 67%
    05:00 +9°C° 0 mm 2 mps 713 mmHg 68%
    06:00 +10°C° 0 mm 2 mps 713 mmHg 63%
    07:00 +11°C° 0 mm 3 mps 714 mmHg 58%
    08:00 +12°C° 0 mm 3 mps 714 mmHg 53%
    09:00 +13°C° 0 mm 4 mps 715 mmHg 51%
    10:00 +14°C° 0 mm 4 mps 715 mmHg 48%
    11:00 +15°C° 0 mm 5 mps 715 mmHg 46%
    12:00 +15°C° 0 mm 5 mps 715 mmHg 47%
    13:00 +16°C° 0 mm 5 mps 714 mmHg 48%
    14:00 +16°C° 0 mm 6 mps 714 mmHg 49%
    15:00 +15°C° 0 mm 5 mps 714 mmHg 53%
    16:00 +14°C° 0 mm 5 mps 714 mmHg 57%
    17:00 +14°C° 0 mm 4 mps 714 mmHg 60%
    18:00 +13°C° 0 mm 4 mps 715 mmHg 65%
    19:00 +12°C° 0 mm 3 mps 715 mmHg 69%
    20:00 +13°C° 0 mm 2 mps 715 mmHg 73%
    21:00 +12°C° 0 mm 2 mps 715 mmHg 76%
    22:00 +12°C° 0 mm 1 mps 715 mmHg 78%
    23:00 +12°C° 0 mm 1 mps 715 mmHg 80%

    28 March, Thursday

    Time Temperature Precipitation Wind Pressure Humidity
    00:00 +11°C° 0 mm 1 mps 715 mmHg 81%
    01:00 +11°C° 0 mm 1 mps 715 mmHg 81%
    02:00 +10°C° 0 mm 1 mps 715 mmHg 82%
    03:00 +10°C° 0 mm 1 mps 715 mmHg 82%
    04:00 +9°C° 0 mm 0 mps 715 mmHg 83%
    05:00 +8°C° 0 mm 0 mps 715 mmHg 83%
    06:00 +10°C° 0 mm 0 mps 715 mmHg 77%
    07:00 +11°C° 0 mm 0 mps 716 mmHg 70%
    08:00 +13°C° 0 mm 0 mps 717 mmHg 64%
    09:00 +15°C° 0 mm 1 mps 717 mmHg 56%
    10:00 +16°C° 0 mm 1 mps 716 mmHg 49%
    11:00 +17°C° 0 mm 2 mps 716 mmHg 41%
    12:00 +18°C° 0 mm 2 mps 716 mmHg 38%
    13:00 +19°C° 0 mm 2 mps 715 mmHg 35%
    14:00 +19°C° 0 mm 3 mps 715 mmHg 32%
    15:00 +19°C° 0 mm 3 mps 715 mmHg 35%
    16:00 +19°C° 0 mm 3 mps 714 mmHg 38%
    17:00 +18°C° 0 mm 3 mps 714 mmHg 41%
    18:00 +17°C° 0 mm 2 mps 714 mmHg 49%
    19:00 +16°C° 0 mm 2 mps 714 mmHg 56%
    20:00 +15°C° 0 mm 2 mps 714 mmHg 64%
    21:00 +15°C° 0 mm 1 mps 713 mmHg 66%
    22:00 +14°C° 0 mm 1 mps 713 mmHg 69%
    23:00 +14°C° 0 mm 1 mps 712 mmHg 72%

    29 March, Friday

    Time Temperature Precipitation Wind Pressure Humidity
    00:00 +14°C° 0 mm 1 mps 712 mmHg 71%
    01:00 +14°C° 0 mm 1 mps 712 mmHg 71%
    02:00 +14°C° 0 mm 2 mps 712 mmHg 71%
    03:00 +14°C° 0 mm 2 mps 712 mmHg 71%
    04:00 +14°C° 0 mm 2 mps 712 mmHg 71%
    05:00 +14°C° 0 mm 2 mps 712 mmHg 71%
    06:00 +14°C° 0 mm 2 mps 711 mmHg 65%
    07:00 +15°C° 0 mm 2 mps 711 mmHg 59%
    08:00 +16°C° 0 mm 3 mps 711 mmHg 53%
    09:00 +18°C° 0 mm 3 mps 711 mmHg 44%
    10:00 +20°C° 0 mm 4 mps 711 mmHg 35%
    11:00 +22°C° 0 mm 4 mps 710 mmHg 27%
    12:00 +22°C° 0 mm 5 mps 710 mmHg 24%
    13:00 +23°C° 0 mm 6 mps 709 mmHg 22%
    14:00 +24°C° 0 mm 8 mps 709 mmHg 20%
    15:00 +23°C° 0.3 mm 6 mps 708 mmHg 28%
    16:00 +22°C° 0.3 mm 5 mps 708 mmHg 36%
    17:00 +20°C° 0.3 mm 3 mps 708 mmHg 43%
    18:00 +19°C° 0.3 mm 3 mps 708 mmHg 50%
    19:00 +18°C° 0.3 mm 3 mps 708 mmHg 57%
    20:00 +17°C° 0.3 mm 2 mps 708 mmHg 64%
    21:00 +16°C° 0.1 mm 2 mps 708 mmHg 67%
    22:00 +15°C° 0.1 mm 2 mps 708 mmHg 69%
    23:00 +15°C° 0.1 mm 2 mps 707 mmHg 72%
    Show more